Dewpoint
67 67 68 74 74 74 73 73 73 74 73 74 73 73 73 73 73 73 72 72 72 71 71 70 70 70 70 69 69 69 71 70 70 70 70 70 70 70 70 69 69 70 70 69 70 70 70 70 71 71 71 71 71 71 71 70 70 70 70 70 70 70 70 70 70 70 69 69 70 69 68 69 70 69 69 69 68 67 66 65 65 61 63 65 67
67 68 69 72 74 74 73 73 73 73 73 73 73 73 73 73 73 72 72 71 71 71 70 70 70 70 69 69 69 70 71 71 70 70 70 70 70 69 69 69 69 70 70 70 70 70 71 71 71 71 71 71 71 71 71 70 70 70 70 70 70 70 70 69 69 69 69 69 69 69 68 69 69 69 69 68 67 67 66 66 65 61 63 66 66
67 68 69 71 74 73 73 73 73 73 73 73 72 73 73 72 72 72 71 71 71 70 70 70 70 69 69 69 70 71 71 70 70 70 70 70 70 69 70 70 70 71 70 70 70 71 71 71 71 70 71 71 71 71 71 71 70 70 69 70 70 70 69 69 69 69 69 70 70 70 69 69 68 69 68 68 67 67 66 66 65 64 63 65 65
67 68 69 72 73 73 73 73 72 72 72 72 72 72 72 72 72 71 71 71 71 70 69 69 70 69 70 70 71 70 70 69 70 70 70 70 70 70 71 70 71 71 70 70 70 70 71 71 70 70 70 70 71 71 71 71 70 70 70 70 70 70 69 69 69 69 68 69 70 67 64 64 65 67 68 67 66 66 66 66 65 65 64 65 66
67 68 69 70 71 73 73 72 72 72 72 71 72 71 71 71 71 71 71 71 71 70 70 70 70 70 69 70 70 70 70 70 70 71 70 70 70 71 71 71 71 71 71 70 70 71 70 70 70 70 70 70 71 71 71 70 70 70 70 70 70 69 69 69 69 68 67 65 65 66 59 58 63 65 66 66 65 65 65 66 64 64 64 63 64
68 68 68 69 69 71 73 72 72 72 72 71 71 71 71 71 70 70 70 70 70 70 69 69 69 69 68 68 69 69 70 70 71 71 71 71 71 71 71 71 71 71 71 70 70 71 70 70 70 70 70 70 70 70 70 69 69 69 69 69 69 69 69 68 67 67 66 65 68 61 59 59 59 61 65 64 65 64 64 65 65 64 63 62 63
68 69 68 68 69 70 72 72 72 72 71 71 71 70 71 71 70 70 70 69 69 69 69 69 69 69 68 68 68 68 68 69 70 70 72 72 72 71 71 71 71 71 71 71 70 70 70 70 69 69 69 69 70 70 70 69 69 69 69 69 69 68 68 67 66 65 65 66 60 58 58 58 59 58 63 64 64 65 64 65 64 64 65 64 63
68 68 68 67 69 71 72 72 72 72 71 71 71 70 70 70 70 70 70 70 69 69 69 69 69 69 68 68 68 68 68 68 69 70 71 72 72 71 71 71 71 71 71 71 70 70 69 69 69 69 69 70 70 69 69 70 69 69 69 68 68 67 67 66 65 63 66 57 60 60 59 58 58 59 68 68 67 67 67 67 67 67 67 65 64
68 67 68 68 69 71 72 72 72 71 71 71 70 70 70 70 70 70 70 70 69 69 69 69 69 68 68 68 68 68 68 68 69 70 71 72 72 72 71 71 71 70 71 71 70 69 69 69 70 70 71 71 70 70 70 70 69 69 68 68 67 66 65 65 64 64 60 56 56 56 56 57 59 59 66 68 68 67 66 66 66 65 65 67 66
67 68 68 68 69 72 72 72 71 71 71 71 70 70 70 70 70 70 69 69 69 69 69 69 68 68 68 68 69 69 69 69 70 70 71 71 71 72 71 71 70 70 70 69 69 69 69 70 70 71 71 71 70 70 70 70 69 69 68 67 67 66 65 64 63 63 59 60 59 60 61 62 57 57 65 67 68 67 66 67 67 66 65 67 67
69 68 68 68 69 72 72 72 71 71 71 71 70 70 70 70 70 69 69 69 69 69 69 68 68 68 68 68 68 69 68 68 70 71 71 71 71 71 70 70 70 70 69 69 68 69 70 70 71 71 71 70 70 69 69 69 69 68 68 67 66 66 66 64 68 59 60 60 59 60 60 63 61 62 65 66 66 66 66 66 65 65 65 66 67
68 69 69 69 72 72 72 72 71 71 70 70 70 69 69 69 70 69 69 69 69 69 69 68 69 68 68 68 68 68 68 68 69 70 71 70 70 70 70 69 70 69 69 69 68 69 70 70 70 71 71 70 70 69 69 69 69 68 68 68 67 65 64 66 59 60 59 58 58 61 58 59 60 62 65 65 65 65 66 67 67 66 66 66 67
68 68 69 71 70 72 72 72 71 71 70 70 70 69 69 70 70 69 69 70 70 69 69 69 69 70 69 69 68 68 68 68 69 70 70 70 69 69 70 69 69 69 69 68 68 69 70 70 70 70 70 70 70 69 69 68 68 68 67 67 66 64 62 65 58 59 59 58 59 60 60 62 63 65 65 66 66 65 66 67 67 66 66 66 66
69 68 69 69 70 72 72 71 71 71 71 70 70 70 70 70 70 70 70 71 70 70 70 70 70 70 70 70 70 70 70 70 69 69 70 70 70 70 69 69 69 69 69 68 68 69 70 70 70 70 70 70 69 69 69 68 68 67 67 66 65 63 63 65 63 60 60 59 62 59 60 62 61 66 65 65 65 65 64 65 65 65 65 65 65
69 70 70 69 69 70 72 72 72 71 71 71 71 71 71 71 71 71 71 70 70 71 70 70 70 70 71 71 70 70 70 69 69 70 70 70 70 69 69 69 70 69 68 68 68 69 70 70 70 70 70 69 69 69 68 68 68 67 66 65 64 64 67 58 58 60 59 59 60 59 60 62 66 65 64 64 65 64 64 64 64 64 64 64 64
70 71 70 70 69 70 71 72 72 72 71 71 71 71 71 71 71 71 71 71 71 71 70 70 71 71 71 71 71 70 69 69 70 71 71 70 70 70 70 69 69 69 69 69 69 69 69 70 70 70 70 70 69 68 68 68 67 67 66 66 65 64 66 65 60 60 61 60 61 61 61 62 67 65 63 63 62 63 64 63 64 63 63 63 62
70 71 69 69 70 69 69 70 70 72 72 72 71 71 71 71 71 71 71 71 71 71 70 70 71 71 71 71 71 71 70 70 71 71 70 70 70 70 69 69 69 69 69 70 70 70 70 70 70 70 70 69 69 68 68 67 67 66 66 66 65 65 65 67 59 61 60 59 58 59 60 60 65 65 64 64 63 63 63 63 63 63 63 62 62
70 69 69 68 69 69 69 69 70 70 70 71 71 71 72 72 72 71 71 71 71 71 71 70 71 71 70 70 70 70 70 71 71 71 71 71 70 70 69 69 69 69 69 69 69 70 70 71 71 70 70 69 69 68 68 67 67 66 66 65 65 64 66 65 61 61 60 61 59 60 60 65 66 63 62 62 62 62 62 63 64 63 62 61 62
70 70 69 69 68 69 69 70 70 69 70 70 70 72 72 72 72 71 71 71 71 71 71 71 71 70 70 69 69 70 71 71 71 71 71 71 70 69 69 69 69 69 69 70 70 70 70 71 71 70 69 69 68 68 67 67 66 66 66 65 64 63 64 64 59 59 61 61 61 60 61 67 65 63 63 63 64 63 63 63 62 63 62 60 63
70 70 70 70 68 69 70 69 70 71 70 70 70 70 72 72 72 71 71 71 71 71 71 71 70 70 69 69 69 70 71 71 71 70 71 70 69 67 69 69 69 69 69 69 70 70 71 71 70 69 69 69 68 68 67 66 66 66 65 64 64 65 64 60 60 59 60 61 62 61 64 64 63 63 63 62 63 63 62 62 62 61 59 59 61
70 70 70 71 69 69 70 69 69 70 71 71 71 70 70 72 72 72 71 71 71 71 71 71 70 69 69 69 70 70 70 71 71 69 70 69 70 70 69 68 68 69 69 70 70 70 70 70 70 69 69 68 68 67 67 67 66 66 65 64 64 65 63 62 62 63 62 61 62 60 65 64 63 62 62 62 62 61 61 60 60 60 62 61 61
68 68 68 70 69 69 71 70 70 71 71 71 71 70 71 71 71 71 71 71 71 71 71 70 70 69 69 68 69 69 69 68 69 69 69 69 69 69 69 68 68 69 69 69 69 70 70 70 70 69 69 68 67 65 66 67 67 66 65 65 65 62 65 64 62 60 60 61 62 63 63 63 62 62 61 61 61 60 60 61 62 61 61 61 61
67 67 68 70 70 70 71 70 71 71 71 71 70 70 69 70 70 69 70 70 70 70 69 69 69 67 67 66 68 68 68 68 69 67 68 68 69 70 69 68 68 69 69 69 69 70 70 69 70 69 68 68 66 64 64 63 64 65 64 66 63 62 64 64 63 62 61 62 62 63 62 62 62 62 61 61 61 61 60 60 60 61 61 61 60
67 67 67 69 70 70 71 72 71 71 70 70 70 69 68 70 69 69 69 70 69 69 69 69 69 69 68 68 67 68 69 71 69 69 69 68 69 69 69 68 68 68 69 69 69 69 69 69 69 69 68 66 65 62 61 62 61 63 64 62 61 62 63 63 60 62 62 60 59 62 62 62 62 62 61 61 60 60 61 61 60 61 61 61 60
68 69 69 70 70 70 71 71 72 72 71 71 71 69 69 69 68 68 68 68 68 67 68 69 69 69 69 69 67 68 68 71 70 68 67 67 67 67 68 65 65 67 68 66 67 67 69 67 67 65 65 65 63 64 63 63 63 62 62 61 62 63 62 63 62 60 62 62 62 62 62 62 62 62 61 61 61 61 61 60 60 60 60 60 60
68 67 68 70 71 70 70 71 69 70 70 70 70 70 69 68 68 68 68 68 68 67 67 68 69 70 70 69 69 68 68 66 68 67 67 67 66 64 64 64 62 63 65 63 62 66 66 65 64 64 64 65 65 64 64 63 62 62 60 62 62 63 62 62 61 61 61 61 63 63 62 62 62 61 61 61 62 61 61 61 61 60 60 60 59
68 67 69 69 71 71 71 71 71 70 71 71 70 69 68 68 68 68 68 67 68 67 66 67 68 71 71 69 68 67 66 65 66 67 67 66 65 64 63 65 63 63 63 62 63 65 66 65 65 65 64 63 63 63 62 62 62 60 61 60 61 61 62 61 60 59 60 61 62 62 62 62 62 61 61 61 61 60 60 60 59 59 59 60 60
67 69 68 69 70 70 70 71 70 71 70 70 70 69 69 69 68 68 68 67 67 67 67 67 68 68 69 69 69 67 64 64 66 66 67 66 65 66 65 64 62 60 62 62 62 63 65 66 66 65 63 63 62 62 60 61 62 62 61 61 61 63 63 60 61 60 61 62 62 63 63 62 61 60 60 60 60 61 60 60 59 59 59 59 59
66 68 68 69 70 70 71 70 70 70 69 70 69 68 68 69 69 68 68 68 67 67 66 68 68 69 69 71 70 68 65 65 66 65 65 65 65 66 65 64 64 63 62 61 61 64 65 64 65 63 64 63 62 62 60 60 62 63 61 61 62 63 64 63 62 59 58 59 61 62 63 62 61 61 60 61 60 60 60 60 60 60 60 59 59
66 67 69 69 70 71 69 69 70 69 69 70 69 69 69 69 69 69 68 69 68 67 68 67 69 67 69 71 69 69 67 65 66 66 64 64 65 66 65 66 64 62 61 62 61 63 64 64 65 64 61 63 62 62 61 61 60 62 61 62 62 62 63 62 62 61 59 60 62 62 63 63 63 63 62 61 61 61 61 60 61 60 59 60 60
67 67 68 69 70 69 69 69 69 69 68 68 70 70 70 69 69 69 69 69 68 68 68 69 68 68 69 71 70 70 69 67 67 67 66 65 66 66 65 65 64 63 62 61 61 62 63 64 65 63 64 63 62 62 60 61 62 59 62 62 62 63 63 64 63 63 61 60 62 63 61 62 62 63 64 64 62 61 60 60 61 60 60 60 60
67 67 67 68 70 69 69 69 69 70 69 69 70 70 71 70 70 69 69 69 70 68 68 69 68 69 70 70 71 71 70 69 68 68 67 66 64 65 65 65 64 63 63 61 60 62 63 64 65 65 65 64 63 62 63 61 61 61 61 63 63 63 62 63 63 64 63 61 60 61 62 61 63 63 63 64 62 61 61 61 60 60 61 61 61
66 68 68 68 68 69 70 70 69 69 69 69 69 70 70 68 69 69 69 70 70 69 69 68 69 69 70 70 70 70 70 69 69 69 66 66 65 65 65 65 65 64 65 65 62 63 63 64 65 64 64 64 64 64 60 63 63 63 63 64 64 63 63 62 63 63 61 61 61 61 63 62 63 65 64 62 62 61 61 61 60 60 61 62 62
65 66 68 68 68 69 69 69 69 69 70 70 70 69 70 70 69 69 69 69 68 68 69 69 69 69 69 69 70 69 69 70 69 68 66 66 66 65 65 65 64 66 65 65 63 63 61 62 64 63 63 63 63 64 62 63 62 63 64 64 64 64 62 63 62 62 61 61 62 63 62 62 61 62 60 62 62 62 62 61 61 62 63 63 62
66 66 66 67 68 68 69 68 68 69 70 70 70 70 70 70 70 69 69 69 68 69 69 69 68 68 68 69 69 69 69 69 69 69 67 65 65 64 64 64 65 66 65 65 63 62 62 62 61 62 62 62 62 63 62 63 62 62 63 64 63 63 64 63 63 62 62 63 63 63 64 61 62 62 60 59 63 62 62 63 63 63 63 63 62
67 67 67 67 67 68 68 68 68 68 69 70 70 71 70 70 70 69 70 70 68 68 69 69 68 68 67 69 70 69 69 69 69 69 69 67 65 64 64 65 65 65 64 65 65 63 62 62 62 62 62 61 61 62 63 62 63 63 63 64 63 63 63 63 63 63 63 63 63 64 63 61 62 61 61 60 62 64 65 64 64 63 63 63 65
68 68 66 67 67 67 67 66 68 67 67 69 69 70 71 71 71 70 70 70 69 68 69 70 69 69 69 69 68 67 70 68 68 68 69 67 65 65 64 66 66 65 64 65 64 63 64 63 63 63 63 61 60 62 63 63 63 64 63 64 64 64 64 64 64 64 64 64 64 64 62 61 63 61 64 61 64 63 66 65 65 65 65 65 64
67 67 65 65 65 65 66 66 66 67 68 69 68 68 69 69 69 68 70 69 69 67 68 69 69 70 70 71 70 69 68 67 67 68 69 68 66 67 67 66 66 66 65 65 64 64 66 65 64 64 63 63 60 62 63 63 63 63 63 63 64 63 65 66 65 63 63 63 64 64 62 64 64 63 62 62 66 66 65 65 66 66 67 66 65
66 65 66 66 66 65 65 65 66 66 68 68 68 68 69 69 69 69 68 69 70 70 70 69 69 70 70 70 68 67 67 67 69 69 68 68 68 68 68 67 67 66 66 65 64 64 67 66 66 65 65 65 61 64 63 62 63 63 63 64 64 67 66 65 64 63 63 64 64 64 64 64 64 63 63 62 62 63 66 67 66 66 65 66 64
66 67 65 66 67 66 66 66 66 67 67 68 68 67 67 66 66 67 66 66 67 68 70 69 68 68 68 69 68 66 66 66 68 68 68 69 68 68 68 68 67 66 65 64 62 63 66 67 67 66 65 64 63 64 64 64 63 65 64 65 66 66 65 66 65 64 64 65 64 63 63 64 63 63 63 63 63 63 63 65 65 66 66 65 65
65 66 66 67 67 66 66 67 67 66 66 66 66 66 66 66 65 65 64 65 66 67 68 69 69 68 68 68 68 68 68 68 67 68 68 68 68 68 68 68 67 66 65 65 65 63 66 67 67 65 65 63 63 65 65 64 63 63 64 65 65 66 66 66 65 64 64 64 63 62 63 63 63 63 63 64 64 64 63 64 64 64 63 66 66
64 65 66 67 66 67 67 65 66 66 67 66 66 66 65 65 65 64 64 64 65 65 65 68 69 68 69 68 68 68 67 67 68 67 68 68 66 68 68 68 67 66 67 67 67 65 65 66 66 66 64 63 63 63 64 64 62 60 60 61 62 63 64 64 64 64 64 64 64 64 64 64 63 63 63 64 64 62 62 64 64 62 62 63 66
63 63 64 65 66 66 66 66 65 65 65 66 66 65 66 66 66 65 65 64 65 65 64 65 69 69 70 69 68 68 67 67 68 67 66 67 67 68 66 68 68 68 68 67 66 66 65 65 66 64 63 64 63 64 64 65 60 61 63 59 57 58 62 63 65 65 64 65 64 64 64 64 64 63 63 63 62 61 61 63 61 61 62 63 64
62 63 63 64 64 64 65 65 65 66 65 65 65 67 67 67 67 66 66 65 65 66 67 67 67 68 68 67 67 68 67 67 67 67 65 67 67 68 67 68 67 68 67 66 65 66 66 66 67 66 65 62 62 63 65 65 65 60 56 57 60 58 56 59 61 63 65 65 65 64 63 63 63 64 63 62 62 62 62 62 60 61 62 63 64
63 63 64 64 64 64 64 65 64 65 65 65 65 66 66 66 66 65 65 66 66 66 66 65 65 66 67 67 66 65 66 67 66 66 67 67 66 67 67 67 68 68 67 67 67 66 65 67 66 67 64 63 61 63 64 66 66 66 58 57 56 56 56 58 60 60 62 64 65 65 64 63 63 63 62 63 63 63 63 60 62 63 63 63 63
62 62 63 63 63 63 64 64 64 64 65 65 65 65 65 65 65 64 63 63 63 64 63 64 64 65 65 66 67 67 67 66 67 67 67 68 67 67 66 67 68 68 68 68 68 66 67 68 67 66 65 64 62 63 63 65 65 64 65 60 63 59 55 58 59 56 61 63 64 64 63 63 64 62 63 63 60 60 62 62 64 64 63 63 63
61 62 63 63 63 63 63 63 64 64 64 64 65 65 66 65 65 64 64 63 62 64 64 67 65 67 67 67 68 68 66 66 66 66 67 66 67 67 67 67 66 68 68 69 68 67 65 65 66 66 65 67 66 63 62 63 64 64 63 64 64 62 60 59 56 56 57 58 60 62 61 62 62 62 61 60 60 61 62 62 63 61 61 64 62
61 62 63 63 63 63 62 63 64 64 65 64 65 65 65 65 65 64 64 64 64 64 65 65 68 67 67 65 67 67 66 66 66 65 66 66 66 66 66 66 67 66 67 68 67 67 66 66 67 66 66 65 66 64 63 62 62 62 63 64 64 63 61 61 59 56 55 55 57 61 62 62 62 63 61 60 60 61 63 62 60 60 61 62 63
59 60 61 62 62 63 63 63 63 64 64 64 64 65 65 65 64 64 64 65 65 64 64 65 66 67 66 66 66 66 66 66 66 66 66 66 66 67 66 66 67 67 66 66 66 67 67 67 66 66 64 67 65 65 64 63 63 61 62 63 63 61 60 61 61 58 56 55 55 56 59 62 62 61 62 60 60 62 62 62 59 58 61 62 61
57 58 59 60 61 62 63 63 63 63 63 64 64 64 65 65 66 65 64 64 65 65 65 64 66 66 66 66 66 66 67 66 66 66 66 66 66 65 66 66 67 67 68 66 65 66 66 66 65 67 67 67 68 65 64 66 64 62 62 62 62 61 61 60 60 59 58 58 54 53 57 59 57 60 62 62 62 62 61 60 61 58 59 61 60
56 57 58 59 59 60 61 61 62 63 64 64 64 64 64 64 64 64 65 65 66 65 64 64 63 66 65 65 65 65 66 65 66 66 66 65 66 65 66 66 67 66 67 67 66 66 67 66 66 66 66 67 66 65 63 65 64 65 62 61 61 61 60 60 60 59 58 58 55 55 56 55 54 58 62 60 60 61 60 60 60 59 61 61 58